[[{"header":{"parameterUnit":"m.s-1","parameterCategory":1,"la1":30.2991,"la2":30.254,"lo1":-89.0895,"lo2":-89.0444,"dy":0.0017,"dx":0.0017,"nx":28,"ny":28,"refTime":"2026-01-02T09:00:00:Z","depth":0,"parameterNumber":2,"parameterNumberName":"U-component_of_WINDS"},"data":[0,0,0,0,0,0,0,0,0,0,0,0,0,0,0,0,0,0,0,0,0,0,0,0,0,0,0,0,0,0,0,0,0,0,0,0,0,0,0,0,0,0,0,0,0,0,0,0,0,0,0,0,0,0,0,0,0,0,1.7504,1.7506,0,1.7653,1.7655,1.7656,1.7681,1.7679,1.7678,1.7677,1.7832,1.7837,1.7843,0,0,0,0,0,0,0,0,0,0,0,0,0,1.7244,1.7248,1.7504,1.7506,1.7508,1.7653,1.7655,1.7657,1.7681,1.7679,1.7678,1.7676,1.783,1.7837,1.7843,0,0,0,0,0,0,0,0,0,0,0,0,0,1.7371,1.725,1.7504,1.7537,1.7542,1.7652,1.7655,1.7657,1.7681,1.7679,1.7677,1.7676,1.7828,1.7836,1.7844,1.7932,0,0,1.7868,1.7872,0,0,0,0,0,0,0,0,1.7364,1.7381,1.7531,1.7535,1.754,1.7646,1.762,1.775,1.7682,1.7628,1.7677,1.7675,1.7772,1.7785,1.7817,1.794,1.7946,1.7869,1.7874,1.7877,1.788,0,0,0,0,0,0,0,1.7355,1.7374,1.7563,1.7533,1.7539,1.7546,1.7562,1.7645,1.7709,1.7633,1.7635,1.7652,1.7774,1.7809,1.7821,1.7948,1.7869,1.7876,1.7881,1.7884,1.8151,1.8153,0,0,0,0,0,0,1.734,1.7367,1.7558,1.7568,1.7445,1.7552,1.757,1.7614,1.7709,1.7721,1.7654,1.7653,1.7796,1.7811,1.7826,1.7935,1.7877,1.7885,1.7889,1.8149,1.8151,1.8154,0,0,0,0,0,0,1.7334,1.7357,1.7552,1.7468,1.7493,1.7559,1.7608,1.7618,1.7653,1.7724,1.7736,1.7677,1.7795,1.7815,1.7905,1.7941,1.7888,1.7896,1.8146,1.815,1.8153,1.8154,0,0,0,0,0,0,1.7326,1.7354,1.7388,1.7468,1.7498,1.7628,1.7611,1.7623,1.7666,1.7666,1.7749,1.7761,1.7795,1.7893,1.7913,1.7951,1.7902,1.8143,1.8148,1.8152,1.8151,1.8157,1.8162,0,0,0,0,0,1.7317,1.7383,1.7389,1.7412,1.7541,1.763,1.7647,1.7684,1.7669,1.7704,1.7749,1.7758,1.7934,1.7902,1.7925,1.7966,1.8141,1.8146,1.8151,1.8148,1.8155,1.8162,0,0,0,0,0,0,1.7306,1.7394,1.7402,1.7496,1.7555,1.7634,1.7679,1.7691,1.7756,1.7754,1.7799,1.7817,1.7905,1.7945,1.7908,1.8056,1.8036,1.8046,1.8026,1.8034,1.8039,1.8027,1.7909,0,0,0,0,0,1.7314,1.7378,1.7453,1.7528,1.7557,1.7613,1.7653,1.7677,1.774,1.7766,1.7818,1.788,1.795,1.7994,1.8062,1.8157,1.8175,1.8196,1.8202,1.8206,1.8214,1.8266,1.8276,1.8171,1.8171,1.8171,0,0,1.7332,1.7388,1.7426,1.7527,1.7576,1.7642,1.7634,1.7704,1.7754,1.7777,1.7865,1.7906,1.7978,1.8071,1.8115,1.8107,1.8247,1.8213,1.8215,1.8221,1.8273,1.8283,1.8291,1.8174,1.8174,1.8173,0,0,1.7398,1.7447,1.7515,1.7564,1.7637,1.7674,1.769,1.7768,1.7795,1.7884,1.7903,1.7963,1.8081,1.8132,1.8173,1.8259,1.8269,1.828,1.8308,1.8359,1.8367,1.8375,1.8405,1.8415,1.8288,1.8288,1.8288,0,1.7411,1.751,1.7548,1.7618,1.7662,1.7685,1.7754,1.78,1.7893,1.7923,1.7913,1.8061,1.8112,1.8217,1.8237,1.827,1.8291,1.827,1.8363,1.8371,1.8379,1.8407,1.8418,1.8288,1.8288,1.8288,1.8288,0,1.7522,1.7591,1.7637,1.7724,1.7773,1.7843,1.7892,1.7938,1.7957,1.7995,1.8086,1.8147,1.8227,1.8255,1.8275,1.8363,1.8355,1.8354,1.8335,1.8389,1.8416,1.8428,1.8289,1.8289,1.8289,1.8289,0,0,1.7583,1.7691,1.7707,1.7747,1.783,1.7884,1.7955,1.8032,1.807,1.8134,1.8194,1.8294,1.8293,1.8339,1.8366,1.8411,1.8474,1.8404,1.8407,1.8414,1.8573,1.8572,1.8585,1.8482,1.8484,1.8486,1.8567,0,1.7658,1.7782,1.7819,1.7925,1.7989,1.8012,1.8074,1.8132,1.817,1.823,1.8273,1.8342,1.8336,1.8364,1.841,1.8456,1.8506,1.8451,1.8538,1.8541,1.8517,1.8599,1.8599,1.8672,1.8578,1.858,1.8581,0,1.7761,1.7824,1.7936,1.801,1.8039,1.8093,1.8167,1.8225,1.8292,1.8316,1.8368,1.8391,1.8466,1.8444,1.8549,1.8511,1.8549,1.8577,1.8581,1.8589,1.8563,1.8608,1.8696,1.8706,1.8599,1.8597,1.8596,0,1.7792,1.7907,1.7988,1.8021,1.8111,1.8148,1.8188,1.8253,1.8297,1.8362,1.8391,1.8465,1.8505,1.8562,1.8605,1.8585,1.8705,1.8687,1.8728,1.8726,1.875,1.8748,1.8844,1.8778,1.8777,1.8777,1.8777,0,1.787,1.7937,1.8003,1.8052,1.8128,1.8171,1.8245,1.8286,1.8344,1.8402,1.8429,1.8483,1.8537,1.8599,1.8633,1.8714,1.8732,1.8754,1.8762,1.8751,1.8748,1.8775,1.8771,1.878,1.878,1.8779,1.8778,0,1.7917,1.7964,1.8054,1.8132,1.8153,1.8205,1.8272,1.8322,1.8361,1.8434,1.8454,1.8516,1.859,1.8639,1.8735,1.8757,1.8845,1.8853,1.8822,1.8825,1.8863,1.8858,1.8978,1.8996,1.8919,1.892,1.892,0,1.7963,1.8015,1.8098,1.8138,1.8178,1.8243,1.8288,1.8333,1.8379,1.8459,1.8499,1.8575,1.8638,1.8756,1.881,1.8883,1.8892,1.8929,1.8903,1.889,1.8891,1.8886,1.8892,1.8933,1.8933,1.8934,1.8934,0,1.8039,1.806,1.8123,1.8195,1.8247,1.8306,1.8365,1.8397,1.8452,1.8503,1.8579,1.8627,1.8725,1.88,1.8878,1.892,1.8936,1.8942,1.8955,1.8943,1.8922,1.8933,1.8832,1.8939,1.8938,1.8938,1.8938,1.8937,1.8086,1.8133,1.8198,1.8268,1.8317,1.8372,1.8422,1.8467,1.853,1.8612,1.8635,1.8714,1.8781,1.8887,1.8931,1.8994,1.8989,1.9009,1.9013,1.9017,1.9016,1.8914,1.9009,1.9008,1.9008,1.9008,1.9008,0,1.8162,1.8205,1.8269,1.835,1.8405,1.8416,1.8482,1.8527,1.8596,1.8656,1.8717,1.8804,1.8878,1.8938,1.9013,1.9052,1.9062,1.9071,1.9067,1.9077,1.9016,1.8997,1.9062,1.9062,1.9061,1.9061,1.9061,1.9061,1.8207,1.8287,1.8315,1.842,1.8463,1.854,1.8576,1.8627,1.8675,1.8771,1.8831,1.887,1.893,1.9011,1.9078,1.9094,1.9121,1.9127,1.9145,1.9087,1.9081,1.9075,1.9057,1.9133,1.9133,1.9199,1.92,1.92]},{"header":{"parameterUnit":"m.s-1","parameterCategory":1,"la1":30.2991,"la2":30.254,"lo1":-89.0895,"lo2":-89.0444,"dy":0.0017,"dx":0.0017,"nx":28,"ny":28,"refTime":"2026-01-02T09:00:00:Z","depth":0,"parameterNumber":3,"parameterNumberName":"V-component_of_WINDS"},"data":[0,0,0,0,0,0,0,0,0,0,0,0,0,0,0,0,0,0,0,0,0,0,0,0,0,0,0,0,0,0,0,0,0,0,0,0,0,0,0,0,0,0,0,0,0,0,0,0,0,0,0,0,0,0,0,0,0,0,2.7729,2.773,0,2.7766,2.7766,2.7766,2.7731,2.773,2.7728,2.7727,2.7762,2.7764,2.7766,0,0,0,0,0,0,0,0,0,0,0,0,0,2.7627,2.7629,2.7729,2.773,2.773,2.7766,2.7766,2.7767,2.7731,2.773,2.7728,2.7726,2.7761,2.7764,2.7766,0,0,0,0,0,0,0,0,0,0,0,0,0,2.7668,2.7629,2.7729,2.7717,2.7716,2.7765,2.7766,2.7767,2.7732,2.7729,2.7727,2.7725,2.776,2.7764,2.7767,2.7829,0,0,2.7777,2.7779,0,0,0,0,0,0,0,0,2.7666,2.7672,2.7718,2.7718,2.7717,2.7742,2.7743,2.7788,2.7732,2.7726,2.7727,2.7724,2.7757,2.776,2.7772,2.7831,2.7833,2.7777,2.7779,2.7781,2.7782,0,0,0,0,0,0,0,2.7663,2.767,2.7743,2.7719,2.7718,2.7709,2.7712,2.7751,2.7752,2.7726,2.7724,2.7728,2.7756,2.7768,2.7772,2.7833,2.7777,2.778,2.7782,2.7784,2.7945,2.7947,0,0,0,0,0,0,2.7662,2.7668,2.7742,2.7745,2.7686,2.7712,2.7716,2.7736,2.7752,2.7752,2.773,2.7727,2.7764,2.7768,2.7773,2.7847,2.7781,2.7784,2.7786,2.7943,2.7946,2.7948,0,0,0,0,0,0,2.766,2.7669,2.7741,2.7706,2.7714,2.7716,2.7739,2.7738,2.775,2.7755,2.7755,2.7743,2.7762,2.7768,2.7816,2.7848,2.7785,2.7789,2.794,2.7944,2.7947,2.7996,0,0,0,0,0,0,2.7657,2.7668,2.7692,2.7706,2.7716,2.7784,2.7741,2.774,2.7756,2.7752,2.7767,2.7767,2.7761,2.7811,2.7819,2.7851,2.7791,2.7937,2.7942,2.7946,2.7991,2.8,2.8008,0,0,0,0,0,2.7653,2.7704,2.7694,2.7703,2.7747,2.7786,2.7791,2.7783,2.7759,2.7783,2.7786,2.7767,2.7843,2.7816,2.7825,2.7859,2.7935,2.794,2.7945,2.7987,2.7998,2.8008,0,0,0,0,0,0,2.7693,2.7706,2.7694,2.7752,2.7768,2.778,2.781,2.7796,2.7818,2.7813,2.7802,2.7806,2.7856,2.7862,2.7832,2.792,2.7885,2.7892,2.7914,2.7924,2.7933,2.793,2.7794,0,0,0,0,0,2.7709,2.774,2.7749,2.7799,2.7808,2.7808,2.7824,2.7817,2.7833,2.7839,2.7846,2.7862,2.7889,2.7907,2.7933,2.7992,2.7994,2.8019,2.8028,2.8035,2.8041,2.8072,2.8083,2.7965,2.7965,2.7965,0,0,2.7741,2.7752,2.7772,2.7807,2.7819,2.7851,2.7813,2.7849,2.7872,2.7844,2.7889,2.7895,2.7911,2.7965,2.7989,2.7972,2.8074,2.8041,2.8047,2.8049,2.8078,2.809,2.81,2.7968,2.7968,2.7967,0,0,2.7816,2.7828,2.787,2.7883,2.7902,2.7901,2.7911,2.7925,2.7928,2.7973,2.7953,2.798,2.8028,2.804,2.8053,2.8133,2.8116,2.8142,2.8186,2.8216,2.8225,2.8234,2.8261,2.8272,2.8148,2.8148,2.8148,0,2.7854,2.7902,2.7894,2.7931,2.7946,2.7924,2.7966,2.7979,2.8004,2.8015,2.7996,2.8055,2.8064,2.812,2.814,2.8151,2.8162,2.814,2.8225,2.8233,2.8241,2.8267,2.8277,2.8151,2.8151,2.815,2.815,0,2.7947,2.798,2.8012,2.8038,2.8057,2.8097,2.8094,2.8115,2.8106,2.8107,2.8153,2.8164,2.8191,2.8204,2.8195,2.8259,2.8247,2.8227,2.8191,2.8255,2.8279,2.829,2.8155,2.8154,2.8153,2.8152,0,0,2.8047,2.8069,2.8081,2.8092,2.8111,2.8136,2.8174,2.8202,2.8219,2.8237,2.8268,2.8309,2.8291,2.8305,2.8298,2.8325,2.8386,2.8301,2.8301,2.8315,2.8456,2.847,2.8482,2.8375,2.8377,2.8379,2.8454,0,2.8122,2.8189,2.8183,2.8247,2.8277,2.8256,2.8289,2.8304,2.8306,2.8332,2.8334,2.8363,2.8336,2.8345,2.8371,2.8374,2.8414,2.8368,2.8403,2.8405,2.8399,2.8495,2.8511,2.8581,2.8464,2.8465,2.8466,0,2.8219,2.8241,2.8308,2.8322,2.8334,2.8364,2.8389,2.8414,2.843,2.8429,2.8446,2.8434,2.8471,2.8436,2.8487,2.8456,2.847,2.8474,2.8476,2.8478,2.8439,2.8499,2.8604,2.8614,2.8482,2.848,2.8479,0,2.8284,2.8332,2.8377,2.8388,2.8406,2.8427,2.8435,2.8449,2.8466,2.8487,2.8498,2.8523,2.8536,2.8555,2.855,2.8525,2.8602,2.8567,2.8602,2.8602,2.8619,2.8618,2.8726,2.8629,2.8629,2.8629,2.8629,0,2.8368,2.841,2.8407,2.8435,2.8481,2.8473,2.8518,2.8523,2.8536,2.8564,2.8548,2.8574,2.8566,2.8592,2.8588,2.8631,2.8637,2.8637,2.8636,2.8638,2.8638,2.8647,2.8642,2.8632,2.8631,2.863,2.863,0,2.8449,2.8449,2.8498,2.8511,2.8515,2.8548,2.8559,2.8585,2.8586,2.8622,2.8629,2.8631,2.8661,2.8658,2.8691,2.8688,2.8741,2.8734,2.8736,2.8734,2.8769,2.8766,2.8886,2.8901,2.8796,2.8797,2.8798,0,2.8502,2.8534,2.855,2.8569,2.8578,2.8608,2.8625,2.8619,2.8637,2.8658,2.8681,2.871,2.8732,2.878,2.8784,2.8809,2.8802,2.8842,2.8805,2.8807,2.8801,2.8799,2.8802,2.8849,2.885,2.8851,2.8852,0,2.8596,2.8595,2.8621,2.8647,2.8668,2.8688,2.8706,2.8722,2.8717,2.8739,2.8769,2.8787,2.8821,2.8849,2.8873,2.888,2.8865,2.8864,2.8873,2.8876,2.8876,2.8876,2.8755,2.8861,2.886,2.8859,2.8859,2.8859,2.8664,2.8691,2.8707,2.8736,2.875,2.8767,2.8792,2.8797,2.8823,2.885,2.8845,2.8879,2.8894,2.8925,2.8935,2.8961,2.8946,2.896,2.8963,2.8966,2.897,2.8872,2.8965,2.8965,2.8965,2.8964,2.8964,0,2.8757,2.8766,2.8793,2.882,2.8843,2.8828,2.8847,2.8867,2.8898,2.8913,2.8936,2.8971,2.8998,2.9004,2.903,2.9049,2.9043,2.9056,2.9054,2.9056,2.8982,2.8971,2.9061,2.9061,2.9061,2.9061,2.9061,2.9061,2.8808,2.8852,2.8853,2.8903,2.8912,2.8946,2.8958,2.8974,2.8986,2.9026,2.9049,2.9053,2.9065,2.9091,2.9115,2.9116,2.9126,2.9142,2.914,2.9071,2.9061,2.9052,2.9042,2.9144,2.9144,2.9211,2.9212,2.9213]}]]